K4HAP Weather Reports


time (UTC)temp
C
wind
direction
speed
KPH
gust
KPH
rain 1hr
cm
rain 24hr
cm
rain mn
cm
humidity
%
barometer
mb
20260510194007 32 307 9.7 27.4 0.00 0.00 0.00 54 1015.5
20260510193507 32 246 12.9 27.4 0.00 0.00 0.00 53 1015.4
20260510193019 32 232 14.5 25.7 0.00 0.00 0.00 54 1015.5
20260510192507 32 166 9.7 29.0 0.00 0.00 0.00 54 1015.5
20260510192009 32 275 11.3 29.0 0.00 0.00 0.00 53 1015.4
20260510191522 32 239 16.1 25.7 0.00 0.00 0.00 51 1015.4
20260510191007 33 239 11.3 30.6 0.00 0.00 0.00 51 1015.4
20260510190507 32 267 11.3 30.6 0.00 0.00 0.00 50 1015.4
20260510190028 32 295 14.5 30.6 0.00 0.00 0.00 51 1015.4
20260510185506 32 249 11.3 29.0 0.00 0.00 0.00 51 1015.4
20260510185007 32 301 9.7 27.4 0.00 0.00 0.00 50 1015.4
20260510184517 33 261 11.3 29.0 0.00 0.00 0.00 51 1015.4
20260510184004 33 300 16.1 30.6 0.00 0.00 0.00 51 1015.5
20260510183504 32 271 17.7 33.8 0.00 0.00 0.00 51 1015.6
20260510183004 33 283 20.9 33.8 0.00 0.00 0.00 50 1015.5
20260510182502 32 257 16.1 29.0 0.00 0.00 0.00 52 1015.4
20260510182003 32 275 17.7 27.4 0.00 0.00 0.00 53 1015.5
20260510181504 32 194 14.5 25.7 0.00 0.00 0.00 52 1015.4
20260510181004 33 263 14.5 25.7 0.00 0.00 0.00 51 1015.5
20260510180504 32 278 14.5 24.1 0.00 0.00 0.00 52 1015.4
20260510180005 32 258 9.7 24.1 0.00 0.00 0.00 51 1015.5
20260510175503 32 264 14.5 24.1 0.00 0.00 0.00 53 1015.6
20260510175006 31 270 8.0 24.1 0.00 0.00 0.00 57 1015.6
20260510174507 32 277 4.8 24.1 0.00 0.00 0.00 55 1015.7
20260510174007 33 213 4.8 24.1 0.00 0.00 0.00 55 1015.6
20260510173507 32 279 8.0 17.7 0.00 0.00 0.00 57 1015.6
20260510173004 32 263 6.4 16.1 0.00 0.00 0.00 57 1015.8
20260510172506 32 165 8.0 19.3 0.00 0.00 0.00 58 1015.8
20260510172006 31 212 9.7 19.3 0.00 0.00 0.00 59 1015.9
20260510171518 31 227 6.4 17.7 0.00 0.00 0.00 60 1016.1
20260510171001 31 178 6.4 17.7 0.00 0.00 0.00 61 1016.1
20260510170504 31 148 4.8 11.3 0.00 0.00 0.00 61 1016.1
20260510170005 31 204 3.2 11.3 0.00 0.00 0.00 61 1016.2
20260510165503 31 177 6.4 11.3 0.00 0.00 0.00 59 1016.4
20260510165004 31 190 1.6 14.5 0.00 0.00 0.00 61 1016.4
20260510164510 31 225 8.0 14.5 0.00 0.00 0.00 61 1016.4
20260510164005 31 145 3.2 22.5 0.00 0.00 0.00 61 1016.4
20260510163503 30 155 3.2 22.5 0.00 0.00 0.00 64 1016.6
20260510163016 31 259 9.7 22.5 0.00 0.00 0.00 62 1016.6
20260510162506 30 198 6.4 14.5 0.00 0.00 0.00 63 1016.7
20260510162006 31 224 8.0 14.5 0.00 0.00 0.00 63 1016.8
20260510161507 30 98 3.2 11.3 0.00 0.00 0.00 64 1016.9
20260510161007 30 178 4.8 12.9 0.00 0.00 0.00 65 1017.0
20260510160509 30 243 4.8 12.9 0.00 0.00 0.00 66 1017.0
20260510160003 30 238 4.8 12.9 0.00 0.00 0.00 65 1016.9
20260510155505 30 178 6.4 16.1 0.00 0.00 0.00 65 1016.9
20260510155003 30 178 9.7 22.5 0.00 0.00 0.00 65 1017.0
20260510154508 30 241 12.9 22.5 0.00 0.00 0.00 65 1016.9
20260510154004 30 265 8.0 17.7 0.00 0.00 0.00 68 1016.8
20260510153504 30 268 6.4 20.9 0.00 0.00 0.00 68 1016.9
20260510153011 29 254 12.9 20.9 0.00 0.00 0.00 69 1017.0
20260510152508 29 175 6.4 16.1 0.00 0.00 0.00 67 1017.0
20260510152007 29 192 4.8 17.7 0.00 0.00 0.00 69 1017.0
20260510151513 29 205 8.0 17.7 0.00 0.00 0.00 68 1016.9
20260510151005 29 240 3.2 17.7 0.00 0.00 0.00 70 1016.9
20260510150504 28 209 4.8 19.3 0.00 0.00 0.00 70 1016.9
20260510150011 28 223 8.0 20.9 0.00 0.00 0.00 71 1016.9
20260510145509 28 179 4.8 20.9 0.00 0.00 0.00 70 1016.8
20260510145010 28 188 3.2 16.1 0.00 0.00 0.00 70 1016.8
20260510144510 28 260 4.8 11.3 0.00 0.00 0.00 71 1016.8
20260510144007 28 219 6.4 12.9 0.00 0.00 0.00 71 1016.8
20260510143503 28 171 4.8 12.9 0.00 0.00 0.00 71 1016.7
20260510143004 28 132 4.8 12.9 0.00 0.00 0.00 71 1016.8
20260510142505 28 174 4.8 9.7 0.00 0.00 0.00 71 1016.7
20260510142006 28 114 3.2 12.9 0.00 0.00 0.00 72 1016.6
20260510141514 28 171 6.4 19.3 0.00 0.00 0.00 71 1016.5
20260510141004 28 205 3.2 19.3 0.00 0.00 0.00 73 1016.6
20260510140507 27 220 6.4 12.9 0.00 0.00 0.00 73 1016.5
20260510140016 27 150 4.8 11.3 0.00 0.00 0.00 74 1016.6
20260510135505 27 190 4.8 16.1 0.00 0.00 0.00 75 1016.6
20260510135008 27 200 4.8 16.1 0.00 0.00 0.00 75 1016.6
20260510134520 27 175 6.4 14.5 0.00 0.00 0.00 76 1016.5
20260510134010 27 126 4.8 11.3 0.00 0.00 0.00 76 1016.4
20260510133507 26 161 4.8 12.9 0.00 0.00 0.00 77 1016.5
20260510133019 26 168 6.4 12.9 0.00 0.00 0.00 78 1016.5
20260510132511 26 174 4.8 9.7 0.00 0.00 0.00 79 1016.5
20260510132010 26 157 3.2 8.0 0.00 0.00 0.00 80 1016.4
20260510131512 26 149 1.6 8.0 0.00 0.00 0.00 80 1016.4
20260510131005 26 153 3.2 8.0 0.00 0.00 0.00 81 1016.4
20260510130506 25 153 3.2 8.0 0.00 0.00 0.00 82 1016.4
20260510130014 25 154 1.6 8.0 0.00 0.00 0.00 83 1016.4
20260510125506 25 157 1.6 8.0 0.00 0.00 0.00 83 1016.4
20260510125007 25 173 3.2 6.4 0.00 0.00 0.00 84 1016.3
20260510124518 24 193 1.6 6.4 0.00 0.00 0.00 85 1016.3
20260510124007 24 191 1.6 6.4 0.00 0.00 0.00 85 1016.2
20260510123510 24 192 1.6 6.4 0.00 0.00 0.00 86 1016.2
20260510123026 23 198 1.6 6.4 0.00 0.00 0.00 86 1016.2
20260510122509 23 254 3.2 4.8 0.00 0.00 0.00 87 1016.2
20260510122006 23 177 0.0 8.0 0.00 0.00 0.00 87 1016.0
20260510121526 23 217 1.6 8.0 0.00 0.00 0.00 87 1016.0
20260510121008 23 223 3.2 8.0 0.00 0.00 0.00 88 1015.9
20260510120508 23 194 0.0 8.0 0.00 0.00 0.00 88 1015.9
20260510120028 23 154 1.6 8.0 0.00 0.00 0.00 88 1015.8
20260510115507 23 193 1.6 6.4 0.00 0.00 0.00 88 1015.7
20260510115011 23 198 0.0 6.4 0.00 0.00 0.00 89 1015.6
20260510114515 23 208 0.0 0.0 0.00 0.00 0.00 89 1015.4
20260510114010 23 218 0.0 0.0 0.00 0.00 0.00 89 1015.5
20260510113507 23 208 0.0 0.0 0.00 0.00 0.00 89 1015.3
20260510113016 23 148 0.0 0.0 0.00 0.00 0.00 89 1015.1
20260510112516 23 142 0.0 0.0 0.00 0.00 0.00 89 1015.0
20260510112009 22 157 0.0 0.0 0.00 0.00 0.00 90 1014.9
20260510111538 22 157 0.0 1.6 0.00 0.00 0.00 90 1014.8
20260510111007 22 147 0.0 1.6 0.00 0.00 0.00 90 1014.7
20260510110514 22 147 0.0 1.6 0.00 0.00 0.00 90 1014.7
20260510110028 22 147 0.0 1.6 0.00 0.00 0.00 90 1014.6
20260510105507 22 147 0.0 1.6 0.00 0.00 0.00 90 1014.5
20260510105007 22 147 0.0 3.2 0.00 0.00 0.00 90 1014.5
20260510104538 22 147 0.0 3.2 0.00 0.00 0.00 90 1014.4
20260510104010 22 192 0.0 3.2 0.00 0.00 0.00 90 1014.5
20260510103506 22 157 0.0 0.0 0.00 0.00 0.00 90 1014.5
20260510103018 22 171 0.0 4.8 0.00 0.00 0.00 90 1014.4
20260510102507 22 142 0.0 4.8 0.00 0.00 0.00 90 1014.3
20260510102006 22 163 0.0 6.4 0.00 0.00 0.00 90 1014.3
20260510101526 22 169 0.0 6.4 0.00 0.00 0.00 90 1014.1
20260510101013 22 163 0.0 6.4 0.00 0.00 0.00 90 1014.0
20260510100516 22 159 1.6 6.4 0.00 0.00 0.00 90 1013.9
20260510100024 22 163 1.6 6.4 0.00 0.00 0.00 90 1013.8
20260510095508 22 152 3.2 6.4 0.00 0.00 0.00 90 1013.8
20260510095006 22 131 1.6 6.4 0.00 0.00 0.00 90 1013.9
20260510094509 22 164 1.6 3.2 0.00 0.00 0.00 90 1013.8
20260510094003 22 159 0.0 3.2 0.00 0.00 0.00 90 1013.8
20260510093507 22 159 0.0 4.8 0.00 0.00 0.00 90 1013.8
20260510093015 22 165 0.0 6.4 0.00 0.00 0.00 90 1013.8
20260510092511 22 144 1.6 6.4 0.00 0.00 0.00 90 1013.7
20260510092011 22 169 3.2 8.0 0.00 0.00 0.00 90 1013.7
20260510091542 22 154 3.2 8.0 0.00 0.00 0.00 90 1013.7
20260510091007 22 160 3.2 8.0 0.00 0.00 0.00 90 1013.6
20260510090508 22 159 3.2 8.0 0.00 0.00 0.00 90 1013.5
20260510090027 22 136 3.2 9.7 0.00 0.00 0.00 90 1013.5
20260510085506 22 145 1.6 9.7 0.00 0.00 0.00 90 1013.5
20260510085007 22 126 1.6 6.4 0.00 0.00 0.00 90 1013.4
20260510084528 22 135 3.2 6.4 0.00 0.00 0.00 90 1013.3
20260510084011 22 151 3.2 9.7 0.00 0.00 0.00 90 1013.2
20260510083510 22 151 3.2 9.7 0.00 0.00 0.00 90 1013.1
20260510083019 22 121 3.2 9.7 0.00 0.00 0.00 90 1013.0
20260510082506 22 148 4.8 9.7 0.00 0.00 0.00 90 1013.0
20260510082008 22 151 3.2 6.4 0.00 0.00 0.00 90 1013.1
20260510081535 22 151 3.2 8.0 0.00 0.00 0.00 89 1013.0
20260510081006 22 142 3.2 11.3 0.00 0.00 0.00 89 1013.1
20260510080509 22 139 4.8 11.3 0.00 0.00 0.00 89 1013.2
20260510080015 22 152 6.4 9.7 0.00 0.00 0.00 89 1013.2
20260510075506 22 123 4.8 14.5 0.00 0.00 0.00 89 1013.3
20260510075007 23 135 6.4 14.5 0.00 0.00 0.00 89 1013.3
20260510074529 22 148 4.8 11.3 0.00 0.00 0.00 89 1013.2
20260510074011 23 111 4.8 12.9 0.00 0.00 0.00 89 1013.4
20260510073513 23 127 4.8 12.9 0.00 0.00 0.00 90 1013.4
20260510073036 23 139 4.8 9.7 0.00 0.00 0.00 90 1013.4
20260510072510 23 161 3.2 8.0 0.00 0.00 0.00 90 1013.5
20260510072008 23 150 3.2 6.4 0.00 0.00 0.00 90 1013.6
20260510071534 23 131 3.2 9.7 0.00 0.00 0.00 90 1013.6
20260510071009 23 126 3.2 9.7 0.00 0.00 0.00 90 1013.6
20260510070506 23 130 4.8 9.7 0.00 0.00 0.00 90 1013.6
20260510070028 23 125 4.8 8.0 0.00 0.00 0.00 90 1013.6
20260510065506 23 150 1.6 8.0 0.00 0.00 0.00 90 1013.7
20260510065012 23 124 4.8 9.7 0.00 0.00 0.00 90 1013.7
20260510064546 23 117 3.2 9.7 0.00 0.00 0.00 90 1013.7
20260510064008 23 123 3.2 8.0 0.00 0.00 0.00 89 1013.7
20260510063509 23 120 4.8 8.0 0.00 0.00 0.00 90 1013.8
20260510063025 23 130 3.2 8.0 0.00 0.00 0.00 90 1014.0
20260510062509 23 132 1.6 6.4 0.00 0.00 0.00 90 1014.1
20260510062010 23 165 1.6 11.3 0.00 0.00 0.00 89 1014.3
20260510061541 23 147 3.2 11.3 0.00 0.00 0.00 89 1014.4
20260510061007 23 132 4.8 9.7 0.00 0.00 0.00 89 1014.4
20260510060510 23 128 1.6 4.8 0.00 0.00 0.00 89 1014.4
20260510060035 23 123 3.2 6.4 0.00 0.00 0.00 89 1014.4
20260510055511 23 116 3.2 6.4 0.00 0.00 0.00 89 1014.4
20260510055006 23 122 3.2 8.0 0.00 0.00 0.00 89 1014.5
20260510054503 23 118 3.2 8.0 0.00 0.00 0.00 89 1014.6
20260510054003 22 125 1.6 4.8 0.00 0.00 0.00 89 1014.7
20260510053506 22 123 0.0 4.8 0.00 0.00 0.00 89 1014.8
20260510053016 22 127 1.6 4.8 0.00 0.00 0.00 89 1014.8
20260510052503 22 121 3.2 4.8 0.00 0.00 0.00 89 1014.9
20260510052007 22 135 0.0 3.2 0.00 0.00 0.00 88 1014.9
20260510051504 23 135 0.0 4.8 0.00 0.00 0.00 88 1015.0
20260510051004 23 126 1.6 4.8 0.00 0.00 0.00 88 1014.9
20260510050504 23 123 1.6 4.8 0.00 0.00 0.00 88 1015.1
20260510050004 23 132 3.2 4.8 0.00 0.00 0.00 88 1015.1
20260510045509 23 113 3.2 4.8 0.00 0.00 0.00 88 1015.0
20260510045010 22 107 1.6 4.8 0.00 0.00 0.00 87 1015.1
20260510044507 22 131 1.6 3.2 0.00 0.00 0.00 88 1015.1
20260510044004 22 143 0.0 1.6 0.00 0.00 0.00 89 1015.2
20260510043504 22 111 0.0 0.0 0.00 0.00 0.00 88 1015.4
20260510043003 22 111 0.0 0.0 0.00 0.00 0.00 88 1015.3
20260510042503 22 111 0.0 0.0 0.00 0.00 0.00 88 1015.5
20260510042009 22 111 0.0 3.2 0.00 0.00 0.00 88 1015.5
20260510041503 22 111 0.0 4.8 0.00 0.00 0.00 88 1015.4
20260510041005 22 106 1.6 4.8 0.00 0.00 0.00 88 1015.3
20260510040503 22 99 0.0 0.0 0.00 0.00 0.00 88 1015.3
20260510040006 22 61 0.0 0.0 0.00 0.00 0.00 87 1015.3
20260510035503 22 61 0.0 0.0 0.00 0.00 0.00 87 1015.4
20260510035002 22 61 0.0 0.0 0.00 0.00 0.00 87 1015.3
20260510034504 22 101 0.0 0.0 0.00 0.00 0.00 86 1015.3
20260510034005 22 101 0.0 0.0 0.00 0.00 0.00 85 1015.4
20260510033508 23 101 0.0 0.0 0.00 0.00 0.00 84 1015.4
20260510033004 23 101 0.0 0.0 0.00 0.00 0.00 84 1015.4
20260510032506 22 101 0.0 0.0 0.00 0.00 0.00 84 1015.4
20260510032003 22 101 0.0 0.0 0.00 0.00 0.00 84 1015.4
20260510031504 22 101 0.0 0.0 0.00 0.00 0.00 84 1015.3
20260510031004 22 101 0.0 0.0 0.00 0.00 0.00 84 1015.3
20260510030503 22 101 0.0 1.6 0.00 0.00 0.00 84 1015.3
20260510030007 23 101 0.0 1.6 0.00 0.00 0.00 83 1015.3
20260510025503 23 101 0.0 3.2 0.00 0.00 0.00 82 1015.2
20260510025004 23 101 0.0 4.8 0.00 0.00 0.00 82 1015.1
20260510024510 23 101 0.0 4.8 0.00 0.00 0.00 82 1015.0
20260510024006 23 115 1.6 4.8 0.00 0.00 0.00 82 1014.9
20260510023503 23 98 0.0 3.2 0.00 0.00 0.00 82 1014.7
20260510023012 23 111 0.0 4.8 0.00 0.00 0.00 82 1014.9
20260510022507 23 92 1.6 4.8 0.00 0.00 0.00 81 1014.8
20260510022002 23 113 1.6 4.8 0.00 0.00 0.00 82 1014.7
20260510021511 23 73 0.0 3.2 0.00 0.00 0.00 81 1014.7
20260510021008 23 73 0.0 3.2 0.00 0.00 0.00 81 1014.8
20260510020507 23 74 1.6 4.8 0.00 0.00 0.00 81 1014.7
20260510020014 23 42 3.2 4.8 0.00 0.00 0.00 80 1014.6
20260510015504 23 73 0.0 4.8 0.00 0.00 0.00 80 1014.6
20260510015003 23 56 1.6 4.8 0.00 0.00 0.00 80 1014.6
20260510014516 23 58 0.0 6.4 0.00 0.00 0.00 79 1014.6
20260510014007 23 81 3.2 6.4 0.00 0.00 0.00 79 1014.5
20260510013507 23 360 3.2 8.0 0.00 0.00 0.00 78 1014.5
20260510013025 23 360 4.8 9.7 0.00 0.00 0.00 78 1014.5
20260510012505 23 41 4.8 9.7 0.00 0.00 0.00 78 1014.4
20260510012007 24 71 4.8 9.7 0.00 0.00 0.00 78 1014.4
20260510011524 24 21 3.2 8.0 0.00 0.00 0.00 78 1014.4
20260510011007 24 29 3.2 8.0 0.00 0.00 0.00 77 1014.3
20260510010502 24 348 3.2 9.7 0.00 0.00 0.00 77 1014.3
20260510010014 24 340 3.2 9.7 0.00 0.00 0.00 77 1014.3
20260510005508 24 352 6.4 16.1 0.00 0.00 0.00 77 1014.4
20260510005003 24 5 4.8 16.1 0.00 0.00 0.00 77 1014.2
20260510004507 24 29 1.6 9.7 0.00 0.00 0.00 77 1014.1
20260510004006 24 44 3.2 14.5 0.00 0.00 0.00 77 1014.0
20260510003507 24 28 6.4 14.5 0.00 0.00 0.00 77 1013.9
20260510003004 24 360 6.4 14.5 0.00 0.00 0.00 77 1013.9
20260510002504 25 38 3.2 16.1 0.00 0.00 0.00 77 1013.9
20260510002006 25 352 8.0 16.1 0.00 0.00 0.00 77 1013.8
20260510001511 25 344 6.4 14.5 0.00 0.00 0.00 77 1013.7
20260510001005 25 360 8.0 16.1 0.00 0.00 0.00 77 1013.6
20260510000506 25 352 8.0 16.1 0.00 0.00 0.00 77 1013.6
20260510000026 25 343 8.0 20.9 0.00 0.00 0.00 77 1013.7
20260509235503 25 352 9.7 20.9 0.00 0.00 0.00 76 1013.6
20260509235012 25 5 11.3 20.9 0.00 0.00 0.00 76 1013.4
20260509234536 26 24 8.0 20.9 0.00 0.00 0.00 75 1013.4
20260509234009 26 329 11.3 24.1 0.00 0.00 0.00 74 1013.3
20260509233503 27 352 12.9 30.6 0.00 0.00 0.00 72 1013.3
20260509233035 27 352 17.7 27.4 0.00 0.00 0.00 70 1013.3
20260509232504 27 335 16.1 24.1 0.00 0.00 0.00 68 1013.2
20260509232006 27 337 11.3 24.1 0.00 0.00 0.00 68 1013.1
20260509231516 27 307 14.5 27.4 0.00 0.00 0.00 67 1013.1
20260509231005 28 345 9.7 27.4 0.00 0.00 0.00 67 1013.1
20260509230508 28 319 14.5 24.1 0.00 0.00 0.00 67 1013.0
20260509230022 28 329 6.4 17.7 0.00 0.00 0.00 67 1012.9
20260509225510 28 298 9.7 22.5 0.00 0.00 0.00 66 1012.9
20260509225009 28 352 12.9 22.5 0.00 0.00 0.00 66 1012.8
20260509224525 28 329 12.9 29.0 0.00 0.00 0.00 65 1012.7
20260509224008 28 309 19.3 29.0 0.00 0.00 0.00 64 1012.7
20260509223508 28 312 12.9 24.1 0.00 0.00 0.00 64 1012.6
20260509223027 29 296 14.5 24.1 0.00 0.00 0.00 63 1012.4
20260509222506 29 314 14.5 24.1 0.00 0.00 0.00 62 1012.3
20260509222008 29 295 17.7 24.1 0.00 0.00 0.00 62 1012.3
20260509221524 29 327 12.9 24.1 0.00 0.00 0.00 62 1012.3
20260509221014 30 352 14.5 27.4 0.00 0.00 0.00 61 1012.3
20260509220504 30 317 16.1 27.4 0.00 0.00 0.00 60 1012.2
20260509220019 30 317 14.5 27.4 0.00 0.00 0.00 56 1012.2
20260509215503 31 312 16.1 27.4 0.00 0.00 0.00 55 1012.1
20260509215008 31 325 14.5 24.1 0.00 0.00 0.00 54 1012.0
20260509214513 31 272 12.9 24.1 0.00 0.00 0.00 53 1011.9
20260509214006 31 309 14.5 24.1 0.00 0.00 0.00 52 1012.0
20260509213512 31 290 11.3 22.5 0.00 0.00 0.00 52 1012.0
20260509213018 31 273 12.9 20.9 0.00 0.00 0.00 52 1011.8
20260509212506 32 302 8.0 17.7 0.00 0.00 0.00 52 1011.8
20260509212013 32 275 12.9 20.9 0.00 0.00 0.00 53 1011.7
20260509211525 31 236 9.7 25.7 0.00 0.00 0.00 53 1011.7
20260509211007 31 277 12.9 25.7 0.00 0.00 0.00 53 1011.7
20260509210507 32 296 12.9 24.1 0.00 0.00 0.00 53 1011.6
20260509210030 32 270 11.3 25.7 0.00 0.00 0.00 53 1011.7
20260509205506 32 287 11.3 25.7 0.00 0.00 0.00 54 1011.7
20260509205010 32 279 16.1 24.1 0.00 0.00 0.00 54 1011.8
20260509204503 31 267 14.5 25.7 0.00 0.00 0.00 54 1011.8
20260509204009 31 290 19.3 24.1 0.00 0.00 0.00 55 1011.8
20260509203507 31 298 9.7 27.4 0.00 0.00 0.00 54 1011.7
20260509203008 32 327 17.7 27.4 0.00 0.00 0.00 54 1011.8
20260509202501 31 261 12.9 20.9 0.00 0.00 0.00 54 1011.8
20260509202003 31 278 11.3 20.9 0.00 0.00 0.00 56 1011.7
20260509201503 30 218 8.0 20.9 0.00 0.00 0.00 60 1011.8
20260509201002 30 198 4.8 8.0 0.00 0.00 0.00 64 1011.7
20260509200502 29 146 1.6 8.0 0.00 0.00 0.00 64 1011.9
20260509200007 30 187 3.2 9.7 0.00 0.00 0.00 63 1011.9
20260509195503 30 192 3.2 9.7 0.00 0.00 0.00 63 1011.8
20260509195002 30 203 4.8 11.3 0.00 0.00 0.00 62 1011.8
20260509194510 29 207 3.2 11.3 0.00 0.00 0.00 64 1011.9